Tracking 19827 objects as of 23-Aug-2019
HD Live streaming from Space Station
objects crossing your sky now

COSMOS 2251 DEB

Track COSMOS 2251 DEB now!
10-day predictions


NORAD ID: 33928
Int'l Code: 1993-036EH
Perigee: 710.1 km
Apogee: 801.9 km
Inclination: 73.9 °
Period: 99.8 minutes
Semi major axis: 7126 km
RCS: 0.039 m2 (small)
Launch date: June 16, 1993
Source: Commonwealth of Independent States (former USSR) (CIS)
Launch site: PLESETSK MISSILE AND SPACE COMPLEX (PKMTR)

Note: This is SATELLITE DEBRIS
aabbcc
Your satellite tracking list
Your tracking list is empty




NASA's NSSDC Master Catalog

Two Line Element Set (TLE):
1 33928U 93036EH  19233.91172549 +.00000063 +00000-0 +26579-4 0  9994
2 33928 073.9256 049.5101 0064404 126.7430 233.9664 14.42929469553714
Source of the keplerian elements: AFSPC